Location: Castiglione Fibocchi
(43.5333°N, 11.7667°E)
Time: 18:16:32
(UTC+00:00)

SL-16 R/B - Pass Details

Date: 15 August 2020
Orbit: 985 x 1007 km, 99.5° (Epoch: 17 September)

Event Time Altitude Azimuth Distance (km) Brightness Sun altitude
Exits shadow 02:54:31 10° 274° (W) 2,753 4.4 -14.2°
Maximum altitude 02:54:32 10° 274° (W) 2,753 4.4 -14.2°
Drops below altitude 10° 02:55:34 10° 284° (WNW) 2,783 4.5 -14.0°
Sets 03:01:01 0° 323° (NW) 3,736 5.5 -13.2°
